www.pogodaiklimat.ru

Погода и климат >> Архив погоды >> Венгрия >> Пакш


ПОГОДА в Пакше

  • Прогноз погоды в Пакше
  • Монитор погоды в Пакше

АРХИВ ПОГОДЫ в Пакше

Время (UTC), дата Ветер
(напр.,м/с)
 
Видим.   Явления Облачность Т
(С)
Тd
(С)
f
(%)
Тe
(С)
Тes
(С)
Комфортность P
(гПа)
Po
(гПа)
Тmin
(С)
Tmax
(С)
R
(мм)
R24
(мм)
S
(см)
19 14.03 Ю 1 н/о н/о +5.7 -2.9 54 +5 +5 1008.5 996.5
20 14.03 Ю 2 н/о н/о +6.0 -2.8 53 +4 +4 1007.8 995.8
21 14.03 Ю 2 25 км 9/0
[Cs]
+5.9 -2.7 54 +4 +4 1007.1 995.1
22 14.03 Ю 3 н/о н/о +5.9 -2.4 55 +3 +3 1006.4 994.4
23 14.03 Ю 3 н/о н/о +6.0 -2.8 53 +3 +3 1005.7 993.7
00 15.03 Ю 3 20 км 9/0
[Cs]
+5.9 -2.9 53 +3 +3 1005.4 993.4
01 15.03 Ю 3 н/о н/о +6.1 -3.0 52 +3 +3 1005.0 993.0
02 15.03 ЮЗ 2 н/о н/о +5.5 -2.8 55 +4 +4 1005.1 993.1
03 15.03 ЮЗ 1 20 км 9/5 1000 м
[Sc Ac As]
+4.8 -2.8 58 +4 +4 1005.4 993.4
04 15.03 ЮЗ 1 н/о н/о +3.4 -2.8 64 +2 +2 1006.0 993.9
05 15.03 ЮЗ 1 н/о н/о +3.3 -2.2 67 +2 +2 1006.5 994.4
06 15.03 штиль 0 20 км 8/4 1000 м
[Sc Ac As]
+3.8 -1.4 69 +3 +3 1007.5 995.4 +3.2
07 15.03 З 1 н/о н/о +8.0 -0.7 54 +8 +8 1008.3 996.4
08 15.03 СЗ 4
{10}
н/о н/о +10.6 +0.1 48 +9 +9 1008.7 996.9
09 15.03 СЗ 5
{12}
30 км 5/5 1200 м
[Cu Sc]
+11.5 -1.3 41 +9 +9 1009.1 997.3
10 15.03 СЗ 6
{15}
н/о н/о +12.3 -1.6 38 +10 +10 1009.4 997.6
11 15.03 СЗ 5
{14}
н/о н/о +13.1 -2.4 34 +11 +11 1009.0 997.3
12 15.03 СЗ 5
{11}
35 км 8/8 1200 м
[Cu Sc]
+13.3 -2.2 34 +12 +12 1008.9 997.2
13 15.03 СЗ 5
{12}
н/о н/о +13.8 -3.5 30 +12 +12 1008.9 997.2
14 15.03 СЗ 4
{10}
н/о н/о +12.9 -3.0 33 +12 +12 1009.4 997.7
15 15.03 З 2
{9}
30 км 9/5 1500 м
[Cu Sc Cs]
+12.5 -2.9 34 +12 +12 1009.3 997.6
16 15.03 З 2 н/о н/о +12.2 -2.8 35 +12 +12 1009.8 998.0
17 15.03 З 2
{10}
н/о н/о +11.3 -2.5 38 +11 +11 1010.0 998.2
18 15.03 З 1 20 км {дождь} 10/3 1000 м
[Sc Ac As]
+9.8 -2.8 41 +10 +10 1010.2 998.3 +14.3
19 15.03 штиль 0 н/о н/о +8.8 -2.5 45 +9 +9 1009.8 997.9
20 15.03 Ю 1 н/о н/о +7.9 -1.6 51 +8 +8 1010.1 998.2
21 15.03 Ю 1 15 км слаб. дождь 10/5 1000 м
[Sc Ac As]
+9.0 +0.2 54 +9 +9 1009.7 997.8
22 15.03 штиль 0 н/о н/о +7.0 +3.8 80 +6 +6 1009.7 997.7
23 15.03 Ю 1 н/о н/о +6.7 +4.4 85 +6 +6 1009.3 997.3
00 16.03 Ю 2 15 км слаб. дождь 10/0
[As op]
+8.2 +3.1 70 +6 +6 1008.3 996.4 0.4
01 16.03 Ю 4 н/о н/о +10.1 +1.7 56 +8 +8 1007.6 995.8
02 16.03 Ю 3 н/о н/о +9.3 +1.0 56 +7 +7 1006.9 995.1
03 16.03 Ю 2 15 км {дождь} 9/0
[Ac As]
+8.4 +0.6 58 +7 +7 1006.9 995.0
04 16.03 ЮЗ 2 н/о н/о +9.4 +0.8 55 +8 +8 1006.5 994.7
05 16.03 С 4
{7}
н/о н/о +10.4 +2.3 57 +8 +8 1008.8 997.0
06 16.03 С 3
{9}
15 км слаб. дождь 10/4 1000 м
[Sc Ac As]
+9.0 +5.2 77 +7 +7 1010.8 998.9 +6.2 0.5
07 16.03 С 2
{8}
н/о н/о +8.3 +5.9 85 +6 +6 1012.0 1000.0
08 16.03 С 3
{7}
н/о н/о +8.3 +5.6 83 +6 +6 1012.6 1000.6
09 16.03 З 2 15 км слаб. дождь 10/4 800 м
[Frnb Ac As]
+9.0 +5.4 78 +7 +7 1013.4 1001.5
10 16.03 С 3
{9}
н/о н/о +9.7 +3.2 64 +8 +8 1013.8 1001.9
11 16.03 СЗ 4
{11}
н/о н/о +10.0 +1.9 57 +8 +8 1014.5 1002.6
12 16.03 СЗ 4
{8}
30 км {дождь} 9/0
[Ac As]
+11.5 +2.8 55 +10 +10 1014.1 1002.3
13 16.03 СЗ 4
{7}
н/о н/о +12.4 +3.1 53 +11 +11 1013.8 1002.0
14 16.03 СЗ 2
{8}
н/о н/о +12.5 +2.1 49 +12 +12 1013.9 1002.1
15 16.03 С 1
{8}
30 км 9/0
[Ac As]
+12.2 +1.8 49 +13 +13 1013.9 1002.1
16 16.03 З 1 н/о н/о +11.7 +2.7 54 +12 +12 1013.9 1002.1
17 16.03 штиль 0 н/о н/о +10.4 +3.2 61 +10 +10 1014.1 1002.2
18 16.03 ЮВ 1 20 км 9/0
[Ac As Ci sp]
+9.5 +2.6 62 +9 +9 1014.3 1002.4 +13.2
19 16.03 Ю 1 н/о н/о +9.1 +2.4 63 +9 +9 1014.4 1002.5
20 16.03 Ю 1 н/о н/о +8.4 +2.4 66 +8 +8 1014.2 1002.2
21 16.03 штиль 0 20 км 9/0
[Ac As]
+7.6 +2.5 70 +7 +7 1014.2 1002.2
22 16.03 Ю 1 н/о н/о +8.5 +3.1 69 +8 +8 1014.2 1002.2
23 16.03 ЮЗ 1 н/о н/о +8.1 +3.4 72 +8 +8 1014.3 1002.3
00 17.03 Ю 1 20 км 9/0
[Ac As]
+5.8 +2.3 78 +5 +5 1013.7 1001.6
01 17.03 Ю 1 н/о н/о +4.0 +2.4 89 +3 +3 1013.1 1001.0
02 17.03 Ю 1 н/о н/о +5.6 +2.4 80 +5 +5 1012.8 1000.7
03 17.03 Ю 1 15 км 5/0
[Ac trans Ci sp]
+4.7 +2.2 84 +3 +3 1012.5 1000.4
04 17.03 Ю 2 н/о н/о +5.3 +2.7 83 +3 +3 1012.4 1000.3
05 17.03 Ю 2 н/о н/о +4.5 +2.7 88 +2 +2 1012.3 1000.2
06 17.03 Ю 2 15 км ясно +6.1 +3.4 83 +4 +4 1012.3 1000.3 +3.8
07 17.03 Ю 2 н/о н/о +10.9 +5.9 71 +10 +10 1012.3 1000.5
08 17.03 ЮЗ 4
{8}
н/о н/о +16.3 +6.7 53 +16 +16 1012.1 1000.5
09 17.03 ЮЗ 5
{10}
25 км 3/0
[Ci sp]
+18.0 +6.2 46 +18 +18 1012.1 1000.5
10 17.03 ЮЗ 4
{9}
н/о н/о +19.7 +6.4 42 +20 +20 1011.6 1000.1
11 17.03 ЮЗ 5
{8}
н/о н/о +20.6 +5.8 38 +21 +21 комфорт 1010.9 999.5
12 17.03 ЮЗ 4
{10}
30 км 3/0
[Ci sp]
+22.0 +5.4 34 +22 +22 комфорт 1010.0 998.6
13 17.03 ЮЗ 5
{9}
н/о н/о +22.9 +4.4 30 +23 +23 комфорт 1009.1 997.8
14 17.03 ЮЗ 5
{9}
н/о н/о +23.0 +3.0 27 +23 +23 комфорт 1008.5 997.2
15 17.03 ЮЗ 4
{9}
30 км 3/0
[Ci sp]
+22.7 +3.3 28 +23 +23 комфорт 1007.9 996.6
16 17.03 ЮЗ 4
{9}
н/о н/о +21.7 +2.9 29 +22 +22 комфорт 1007.6 996.2
17 17.03 Ю 1 н/о н/о +18.4 +3.1 36 +20 +20 1007.4 995.9
18 17.03 ЮВ 1 25 км ясно +13.1 +2.6 49 +14 +14 1007.3 995.6 +23.1
19 17.03 Ю 2 н/о н/о +12.5 +2.4 50 +12 +12 1007.3 995.6
20 17.03 З 2 н/о н/о +13.9 +3.9 51 +14 +14 1007.7 996.0
21 17.03 ЮЗ 2 н/о н/о +13.4 +5.1 57 +13 +13 1008.0 996.3
22 17.03 З 4
{7}
н/о н/о +13.8 +5.2 56 +12 +12 1007.8 996.1
23 17.03 ЮЗ 4
{10}
н/о н/о +13.8 +5.4 57 +12 +12 1008.4 996.7
00 18.03 ЮЗ 3
{8}
20 км ясно +12.8 +5.5 61 +12 +12 1008.8 997.1
01 18.03 З 4
{10}
н/о н/о +13.2 +5.6 60 +12 +12 1009.0 997.3
02 18.03 З 3
{9}
н/о н/о +12.0 +5.9 66 +11 +11 1010.3 998.5
03 18.03 СЗ 4
{12}
20 км 8/0
[Ac As]
+10.2 +1.6 55 +8 +8 1011.7 999.8
04 18.03 СЗ 3
{9}
н/о н/о +9.2 +0.6 55 +7 +7 1012.3 1000.4
05 18.03 З 2
{8}
н/о н/о +8.4 +0.6 58 +7 +7 1013.5 1001.5
06 18.03 СЗ 2 20 км 9/4 1000 м
[Sc Ac As]
+8.7 -0.1 54 +7 +7 1014.0 1002.0 +8.3
07 18.03 СЗ 4
{8}
н/о н/о +9.1 -0.2 52 +7 +7 1014.9 1002.9
08 18.03 С 3
{7}
н/о н/о +9.6 +0.5 53 +8 +8 1015.0 1003.1
09 18.03 СЗ 4
{8}
25 км 10/5 1000 м
[Sc Ac As]
+10.0 +0.9 53 +8 +8 1015.2 1003.3
10 18.03 С 4
{9}
н/о н/о +9.6 +0.5 53 +7 +7 1015.9 1004.0
11 18.03 СЗ 3
{9}
н/о н/о +9.1 0.0 53 +7 +7 1016.7 1004.7
12 18.03 С 4
{9}
30 км 10/5 1500 м
[Sc Ac As]
+9.1 -1.0 49 +7 +7 1016.4 1004.4
13 18.03 С 4
{9}
н/о н/о +9.0 -1.1 49 +7 +7 1016.4 1004.4
14 18.03 С 3
{11}
н/о н/о +9.4 -0.8 49 +8 +8 1016.4 1004.4
15 18.03 С 3
{8}
30 км 10/5 1500 м
[Sc Ac As]
+8.8 -0.2 53 +7 +7 1016.6 1004.6
16 18.03 С 2
{10}
н/о н/о +8.4 -0.6 53 +7 +7 1017.2 1005.2
17 18.03 СЗ 3
{8}
н/о н/о +8.0 -0.2 56 +6 +6 1017.9 1005.9
18 18.03 С 3
{9}
12 км слаб. дождь 10/6 1000 м
[Sc Ac As]
+7.6 -1.6 52 +5 +5 1019.3 1007.2 +10.0
19 18.03 СЗ 3 н/о н/о +7.4 -1.0 55 +5 +5 1019.8 1007.7
20 18.03 СЗ 2
{7}
н/о н/о +7.4 -1.5 53 +6 +6 1020.5 1008.4
21 18.03 С 1 12 км слаб. дождь 10/6 1000 м
[Sc Ac As]
+7.3 -1.9 52 +7 +7 1020.7 1008.6
22 18.03 СЗ 1 н/о н/о +7.0 -1.4 55 +7 +7 1020.9 1008.8
23 18.03 СЗ 2 н/о н/о +6.5 -0.9 59 +5 +5 1021.4 1009.3
00 19.03 СЗ 2 12 км {дождь} 9/0
[Ac As]
+5.8 -0.7 63 +4 +4 1021.8 1009.6
01 19.03 СЗ 2 н/о н/о +6.1 -0.8 61 +4 +4 1021.5 1009.3
02 19.03 СЗ 2 н/о н/о +5.8 -0.7 63 +4 +4 1021.8 1009.6
03 19.03 СЗ 2 12 км 9/0
[Ac As]
+5.8 -0.7 63 +4 +4 1022.0 1009.8
04 19.03 СЗ 2 н/о н/о +5.6 -0.7 64 +3 +3 1022.0 1009.8
05 19.03 С 2 н/о н/о +5.5 -1.2 62 +3 +3 1022.1 1009.9
06 19.03 С 3 15 км 10/4 1000 м
[Sc Ac As]
+6.0 -1.2 60 +3 +3 1022.6 1010.4 +5.5
07 19.03 С 2 н/о н/о +6.4 -1.5 57 +5 +5 1023.2 1011.0
08 19.03 С 2 н/о н/о +6.7 -1.5 56 +5 +5 1023.8 1011.6
09 19.03 С 2 30 км 10/5 1200 м
[Sc Ac As]
+7.2 -1.2 55 +6 +6 1023.9 1011.8
10 19.03 С 3
{7}
н/о н/о +8.1 -1.4 51 +6 +6 1024.0 1011.9
11 19.03 н/о н/о +8.7 -1.7 48 1024.3 1012.2
12 19.03 С 3
{8}
35 км 10/4 1300 м
[Sc Ac As]
+10.0 -1.4 45 +8 +8 1023.9 1011.9
13 19.03 С 3 н/о н/о +9.5 -2.8 42 +8 +8 1023.9 1011.9
14 19.03 С 2
{7}
н/о н/о +10.1 -3.9 37 +9 +9 1023.7 1011.7
15 19.03 С 3
{7}
35 км 10/0
[Ac As]
+9.9 -4.1 37 +8 +8 1024.1 1012.1
16 19.03 С 3 н/о н/о +9.8 -4.2 37 +8 +8 1024.5 1012.5
17 19.03 н/о н/о +9.4 -5.7 34 1025.5 1013.4
18 19.03 СЗ 1 35 км 9/0
[Ac As Ci sp]
+7.0 -5.7 40 +7 +7 1026.3 1014.1 +10.3
19 19.03 СЗ 2 н/о н/о +7.1 -5.6 40 +6 +6 1026.9 1014.7
20 19.03 СЗ 2 н/о н/о +5.9 -5.7 43 +4 +4 1027.3 1015.1
21 19.03 СЗ 1 25 км 3/0
[Ci sp]
+4.3 -5.5 49 +4 +4 1027.7 1015.4
22 19.03 СЗ 1 н/о н/о +2.2 -5.7 56 +1 +1 1028.2 1015.8
23 19.03 СЗ 2 н/о н/о +2.8 -5.1 56 0 0 1028.5 1016.1
00 20.03 С 1 15 км 9/0
[Cs]
+2.4 -5.2 57 +1 +1 1028.6 1016.2
01 20.03 С 2 н/о н/о +2.6 -5.1 57 0 0 1028.8 1016.4
02 20.03 С 2 н/о н/о +2.2 -5.2 58 -1 -1 1029.0 1016.6
03 20.03 С 1 15 км 5/0
[Ac trans]
+1.2 -5.3 62 -0 -0 1029.5 1017.0
04 20.03 С 1 н/о н/о -0.1 -5.5 67 -2 -2 1030.0 1017.5
05 20.03 С 1 н/о н/о -1.7 -5.7 74 -4 -4 1030.7 1018.1
06 20.03 СЗ 1 20 км 3/0
[Ac trans]
-0.1 -4.5 72 -2 -2 1031.6 1019.0 -2.2
07 20.03 СВ 3 н/о н/о +6.1 -4.1 48 +4 +4 1032.0 1019.7
08 20.03 СВ 3
{7}
н/о н/о +8.4 -6.2 35 +7 +7 1032.2 1020.0
09 20.03 СВ 3
{9}
30 км 3/0
[Ac trans]
+9.6 -6.7 31 +8 +8 1032.5 1020.4
10 20.03 СВ 3
{8}
н/о н/о +10.9 -6.0 30 +10 +10 1032.5 1020.4
11 20.03 С 3
{7}
н/о н/о +11.0 -5.1 32 +10 +10 1032.4 1020.3
12 20.03 С 3
{8}
30 км 4/4 1200 м
[Cu med, cong]
+10.9 -5.6 31 +10 +10 1032.3 1020.2
13 20.03 С 3
{7}
н/о н/о +11.8 -4.8 31 +11 +11 1031.9 1019.9
14 20.03 С 2
{7}
н/о н/о +11.3 -5.2 31 +11 +11 1032.1 1020.0
15 20.03 С 3
{8}
30 км 3/1 1380 м
[Cu med, cong Ac trans]
+11.8 -7.6 25 +11 +11 1032.0 1020.0
16 20.03 С 2 н/о н/о +11.2 -7.1 27 +11 +11 1032.5 1020.4
17 20.03 С 1 н/о н/о +9.1 -8.0 29 +9 +9 1033.1 1020.9
18 20.03 штиль 0 30 км ясно +4.6 -8.5 38 +5 +5 1033.8 1021.4 +13.0
19 20.03 СЗ 1 н/о н/о +3.4 -8.3 42 +3 +3 1034.2 1021.8
20 20.03 СЗ 1 н/о н/о +4.1 -7.4 43 +4 +4 1034.6 1022.2
21 20.03 СЗ 2 н/о н/о +4.4 -6.8 44 +2 +2 1034.9 1022.5
22 20.03 СЗ 2 н/о н/о +4.5 -6.4 45 +3 +3 1035.4 1023.0
23 20.03 С 1 н/о н/о +3.6 -6.4 48 +3 +3 1035.5 1023.1
00 21.03 С 2 н/о н/о +2.5 -6.1 53 0 0 1035.6 1023.1
01 21.03 С 1 н/о н/о +1.2 -6.8 55 0 0 1035.5 1023.0
02 21.03 С 1 н/о н/о +0.1 -6.5 61 -1 -1 1035.4 1022.8
03 21.03 С 1 н/о н/о -1.6 -6.5 69 -3 -3 1035.7 1023.0
04 21.03 СЗ 1 н/о н/о -3.8 -7.2 77 -6 -6 1035.9 1023.1
05 21.03 штиль 0 н/о н/о -4.5 -7.4 80 -5 -5 1036.2 1023.4
06 21.03 штиль 0 20 км 1/0
[Ci fib]
-1.6 -5.4 75 -3 -3 1036.8 1024.1 -4.5
07 21.03 СВ 1 н/о н/о +4.6 -4.4 52 +4 +4 1036.9 1024.5
08 21.03 ЮВ 1 н/о н/о +8.0 -5.1 39 +8 +8 1036.9 1024.6
09 21.03 Ю 2 35 км 3/0
[Ci sp]
+9.9 -4.5 36 +9 +9 1036.7 1024.5
10 21.03 Ю 1 н/о н/о +11.7 -4.9 31 +12 +12 1036.4 1024.3
11 21.03 В 2 н/о н/о +12.4 -6.1 27 +12 +12 1035.9 1023.8
12 21.03 Ю 2 н/о н/о +13.7 -6.5 24 +14 +14 1034.9 1022.9
13 21.03 З 2 н/о н/о +13.8 -5.9 25 +14 +14 1034.2 1022.2
14 21.03 ЮЗ 2 н/о н/о +13.8 -7.5 22 +14 +14 1033.5 1021.5
15 21.03 В 1 н/о н/о +14.2 -6.6 23 +15 +15 1033.2 1021.2
17 21.03 штиль 0 н/о н/о +9.9 -6.0 32 +10 +10 1033.1 1021.0

 

Местоположение метеостанции Пакш (Венгрия): широта 46.58 долгота 18.85 высота над уровнем моря 98 м.

В архиве по умолчанию представлена погода в Пакше за последнюю неделю. Архивные данные за месяц целиком и за предыдущие месяцы, начиная с января 2011 года, Вы можете получить, выбрав интересующий диапазон дат из раскрывающегося списка и нажав кнопку "Ввод!".


*Определитесь, кто Вы:
робот инопланетянин человек

Внимание! Время в таблицах - всемирное. Для получения местного времени необходимо прибавить поправку, которая равна 1 ч.

Смотрите также архив погоды в соседних городах и на ближайших метеорологических станциях:

Погода в Байе (Венгрия) (46 км)
Погода в Агарде (Венгрия) (69 км)
Погода в Шиофоке (Венгрия) (72 км)
Погода в Кечкемете (Венгрия) (78 км)
Погода в Пече (Венгрия) (80 км)
Погода в Капошваре (Венгрия) (81 км)
Погода в Паличе (Сербия) (89 км)
Погода в Сомборе (Сербия) (93 км)
Погода в Веспреме (Венгрия) (95 км)
Погода в Будапеште (Венгрия) (98 км)

Пояснения к столбцам:

Ветер - указаны скорость ветра в м/с - средняя за 10 мин, порывы в срок и между сроками (в фигурных скобках) и направление, откуда дует ветер: С - северный, СВ - северо-восточный, В - восточный, ЮВ - юго-восточный, Ю - южный, ЮЗ - юго-западный, З - западный, СЗ - северо-западный.
Видимость - горизонтальная дальность видимости в метрах или километрах. При видимости от 1 до 10 км при отсутствии осадков обычно наблюдается дымка, при ухудшении видимости до 1 км и менее - туман. В сухую погоду видимость может ухудшаться дымом, пылью или мглою.
Явления - указаны атмосферные явления, наблюдавшиеся в срок или в последний час перед сроком; фигурными скобками обозначены явления, наблюдавшиеся между сроками (за 1-3 часа до срока); квадратными скобками обозначены град или гололедные отложения с указанием их диаметра в мм.
Облачность - указаны через наклонную черту общая и нижняя облачность в баллах и высота нижней границы облаков в метрах; квадратными скобками обозначены формы облаков: Ci - перистые, Cs - перисто-слоистые, Cc - перисто-кучевые, Ac - высококучевые, As - высокослоистые, Sc - слоисто-кучевые, Ns - слоисто-дождевые, Cu - кучевые, Cb - кучево-дождевые. Подробнее классификацию облаков см. в Атласе облаков (PDF).
T - Температура воздуха - температура, измеренная на высоте 2 м над землей.
Td - Температура точки росы - температура, при понижении до которой содержащийся в воздухе водяной пар достигнет насыщения.
f - Относительная влажность воздуха - влажноcть воздуха, измеренная на высоте 2 м над землей.
Te - Эффективная температура - температура, которую ощущает одетый по сезону человек в тени. Характеристика душности погоды. При расчете учитывается влияние влажности воздуха и скорости ветра на теплоощущения человека.
Tes - Эффективная температура на солнце - температура, которую ощущает человек, с поправкой на солнечный нагрев. Характеристика знойности погоды. Зависит от высоты солнца над горизонтом, облачности и скорости ветра. Ночью, в пасмурную погоду, а также при ветре 12 м/с и более поправка равна нулю.
P - Атмосферное давление - приведенное к уровню моря атмосферное давление.
Po - Атмосферное давление - измеренное на уровне метеостанции атмосферное давление.
Tmin - Минимальная температура - минимум температуры воздуха на высоте 2 м над землей.
Tmax - Максимальная температура - максимум температуры воздуха на высоте 2 м над землей.
R - Количество осадков - Количество выпавших осадков за период времени, мм. При наведении курсора мыши на число - период времени, за который выпало указанное количество осадков.
R24 - Количество осадков - Количество выпавших осадков за 24 часа, мм.
S - Снежный покров - Высота снежного покрова, см. При наведении курсора мыши на число - состояние снежного покрова и степень покрытия местности в баллах.